Tiempo cada hora Dalat

Hoy, 1 Diciembre, Martes

Tiempo Temperatura Precipitaciones Viento Presión Humedad
00:00 +19°C° 0.7 mm 1 mps 653 mmHg 99%
01:00 +18°C° 0 mm 2 mps 653 mmHg 98%
02:00 +19°C° 0.2 mm 1 mps 652 mmHg 98%
03:00 +19°C° 0.2 mm 1 mps 652 mmHg 98%
04:00 +19°C° 0.2 mm 1 mps 652 mmHg 98%
05:00 +18°C° 0.2 mm 2 mps 652 mmHg 98%
06:00 +18°C° 0.2 mm 2 mps 653 mmHg 97%
07:00 +18°C° 0 mm 2 mps 653 mmHg 97%
08:00 +19°C° 0.1 mm 3 mps 654 mmHg 92%
09:00 +20°C° 0.1 mm 3 mps 654 mmHg 86%
10:00 +21°C° 0.1 mm 3 mps 655 mmHg 81%
11:00 +22°C° 0.1 mm 3 mps 654 mmHg 79%
12:00 +22°C° 0.1 mm 3 mps 654 mmHg 76%
13:00 +22°C° 0.1 mm 3 mps 654 mmHg 74%
14:00 +22°C° 0.1 mm 3 mps 653 mmHg 77%
15:00 +21°C° 0.1 mm 3 mps 653 mmHg 81%
16:00 +20°C° 0.1 mm 2 mps 652 mmHg 85%
17:00 +19°C° 0 mm 2 mps 652 mmHg 88%
18:00 +18°C° 0 mm 2 mps 652 mmHg 91%
19:00 +17°C° 0 mm 2 mps 652 mmHg 94%
20:00 +17°C° 0 mm 2 mps 653 mmHg 95%
21:00 +17°C° 0 mm 2 mps 653 mmHg 95%
22:00 +17°C° 0 mm 2 mps 653 mmHg 95%
23:00 +17°C° 0 mm 2 mps 653 mmHg 95%

Mañana, 2 Diciembre, Miércoles

Tiempo Temperatura Precipitaciones Viento Presión Humedad
00:00 +16°C° 0 mm 2 mps 652 mmHg 95%
01:00 +16°C° 0 mm 2 mps 652 mmHg 94%
02:00 +16°C° 0 mm 2 mps 652 mmHg 94%
03:00 +16°C° 0 mm 2 mps 652 mmHg 94%
04:00 +16°C° 0 mm 2 mps 652 mmHg 94%
05:00 +16°C° 0 mm 2 mps 652 mmHg 93%
06:00 +17°C° 0 mm 2 mps 653 mmHg 91%
07:00 +18°C° 0 mm 3 mps 653 mmHg 89%
08:00 +19°C° 0 mm 3 mps 654 mmHg 82%
09:00 +21°C° 0 mm 3 mps 654 mmHg 75%
10:00 +22°C° 0 mm 4 mps 655 mmHg 68%
11:00 +22°C° 0 mm 4 mps 654 mmHg 68%
12:00 +22°C° 0 mm 3 mps 654 mmHg 67%
13:00 +24°C° 0 mm 3 mps 653 mmHg 67%
14:00 +22°C° 0 mm 3 mps 653 mmHg 70%
15:00 +23°C° 0 mm 2 mps 653 mmHg 73%
16:00 +21°C° 0 mm 2 mps 652 mmHg 75%
17:00 +19°C° 0 mm 2 mps 652 mmHg 83%
18:00 +18°C° 0 mm 2 mps 652 mmHg 90%
19:00 +16°C° 0 mm 1 mps 652 mmHg 97%
20:00 +16°C° 0 mm 2 mps 653 mmHg 96%
21:00 +16°C° 0 mm 2 mps 653 mmHg 96%
22:00 +16°C° 0 mm 2 mps 653 mmHg 95%
23:00 +16°C° 0 mm 2 mps 653 mmHg 95%

Pasado mañana, 3 Diciembre, Jueves

Tiempo Temperatura Precipitaciones Viento Presión Humedad
00:00 +15°C° 0 mm 2 mps 652 mmHg 94%
01:00 +15°C° 0 mm 2 mps 652 mmHg 94%
02:00 +15°C° 0 mm 2 mps 652 mmHg 93%
03:00 +15°C° 0 mm 2 mps 651 mmHg 93%
04:00 +14°C° 0 mm 2 mps 651 mmHg 93%
05:00 +15°C° 0 mm 2 mps 651 mmHg 90%
06:00 +15°C° 0 mm 2 mps 652 mmHg 88%
07:00 +16°C° 0 mm 2 mps 652 mmHg 85%
08:00 +18°C° 0 mm 3 mps 653 mmHg 79%
09:00 +20°C° 0 mm 3 mps 654 mmHg 72%
10:00 +21°C° 0 mm 3 mps 654 mmHg 66%
11:00 +22°C° 0 mm 3 mps 654 mmHg 64%
12:00 +22°C° 0 mm 3 mps 654 mmHg 63%
13:00 +24°C° 0 mm 3 mps 653 mmHg 61%
14:00 +22°C° 0 mm 3 mps 653 mmHg 65%
15:00 +21°C° 0 mm 3 mps 653 mmHg 69%
16:00 +20°C° 0 mm 2 mps 652 mmHg 73%
17:00 +18°C° 0 mm 2 mps 652 mmHg 79%
18:00 +16°C° 0 mm 2 mps 652 mmHg 85%
19:00 +14°C° 0 mm 2 mps 653 mmHg 91%
20:00 +14°C° 0 mm 2 mps 653 mmHg 91%
21:00 +13°C° 0 mm 2 mps 653 mmHg 91%
22:00 +13°C° 0 mm 2 mps 653 mmHg 91%
23:00 +13°C° 0 mm 2 mps 652 mmHg 91%

4 Diciembre, Viernes

Tiempo Temperatura Precipitaciones Viento Presión Humedad
00:00 +13°C° 0 mm 2 mps 652 mmHg 91%
01:00 +13°C° 0 mm 2 mps 652 mmHg 92%
02:00 +13°C° 0 mm 2 mps 651 mmHg 92%
03:00 +13°C° 0 mm 2 mps 651 mmHg 92%
04:00 +13°C° 0 mm 2 mps 651 mmHg 92%
05:00 +13°C° 0 mm 2 mps 651 mmHg 90%
06:00 +14°C° 0 mm 2 mps 652 mmHg 88%
07:00 +14°C° 0 mm 2 mps 652 mmHg 85%
08:00 +16°C° 0 mm 2 mps 653 mmHg 77%
09:00 +19°C° 0 mm 2 mps 654 mmHg 69%
10:00 +21°C° 0 mm 2 mps 655 mmHg 61%
11:00 +21°C° 0 mm 2 mps 654 mmHg 60%
12:00 +23°C° 0 mm 2 mps 653 mmHg 59%
13:00 +24°C° 0 mm 2 mps 653 mmHg 58%
14:00 +23°C° 0 mm 2 mps 652 mmHg 63%
15:00 +21°C° 0 mm 2 mps 652 mmHg 67%
16:00 +20°C° 0 mm 2 mps 652 mmHg 72%
17:00 +18°C° 0 mm 2 mps 652 mmHg 79%
18:00 +16°C° 0 mm 2 mps 652 mmHg 86%
19:00 +14°C° 0 mm 2 mps 652 mmHg 92%
20:00 +14°C° 0 mm 2 mps 652 mmHg 92%
21:00 +13°C° 0 mm 2 mps 652 mmHg 93%
22:00 +13°C° 0 mm 2 mps 652 mmHg 93%
23:00 +13°C° 0 mm 2 mps 652 mmHg 92%

5 Diciembre, Sábado

Tiempo Temperatura Precipitaciones Viento Presión Humedad
00:00 +13°C° 0 mm 2 mps 652 mmHg 92%
01:00 +13°C° 0 mm 1 mps 651 mmHg 92%
02:00 +13°C° 0 mm 1 mps 651 mmHg 92%
03:00 +13°C° 0 mm 1 mps 651 mmHg 93%
04:00 +13°C° 0 mm 1 mps 651 mmHg 93%
05:00 +14°C° 0 mm 2 mps 652 mmHg 91%
06:00 +14°C° 0 mm 2 mps 652 mmHg 90%
07:00 +15°C° 0 mm 2 mps 653 mmHg 88%
08:00 +17°C° 0 mm 2 mps 653 mmHg 79%
09:00 +19°C° 0 mm 2 mps 654 mmHg 70%
10:00 +23°C° 0 mm 2 mps 655 mmHg 61%
11:00 +23°C° 0 mm 2 mps 654 mmHg 60%
12:00 +24°C° 0 mm 2 mps 654 mmHg 59%
13:00 +24°C° 0 mm 2 mps 653 mmHg 58%
14:00 +23°C° 0 mm 2 mps 653 mmHg 64%
15:00 +21°C° 0 mm 2 mps 653 mmHg 69%
16:00 +20°C° 0 mm 2 mps 652 mmHg 75%
17:00 +19°C° 0 mm 2 mps 652 mmHg 81%
18:00 +18°C° 0 mm 1 mps 652 mmHg 87%
19:00 +15°C° 0 mm 1 mps 652 mmHg 93%
20:00 +15°C° 0 mm 1 mps 652 mmHg 93%
21:00 +14°C° 0 mm 1 mps 652 mmHg 92%
22:00 +14°C° 0 mm 1 mps 652 mmHg 91%
23:00 +14°C° 0 mm 1 mps 652 mmHg 92%

6 Diciembre, Domingo

Tiempo Temperatura Precipitaciones Viento Presión Humedad
00:00 +14°C° 0 mm 1 mps 652 mmHg 92%
01:00 +14°C° 0 mm 1 mps 651 mmHg 93%
02:00 +14°C° 0 mm 1 mps 651 mmHg 93%
03:00 +14°C° 0 mm 1 mps 651 mmHg 93%
04:00 +14°C° 0 mm 1 mps 651 mmHg 94%
05:00 +15°C° 0 mm 2 mps 651 mmHg 92%
06:00 +15°C° 0 mm 2 mps 652 mmHg 90%
07:00 +16°C° 0 mm 2 mps 652 mmHg 89%
08:00 +18°C° 0 mm 2 mps 653 mmHg 81%
09:00 +20°C° 0 mm 2 mps 654 mmHg 73%
10:00 +23°C° 0 mm 2 mps 655 mmHg 65%
11:00 +24°C° 0 mm 2 mps 654 mmHg 63%
12:00 +25°C° 0 mm 2 mps 654 mmHg 61%
13:00 +25°C° 0 mm 2 mps 654 mmHg 59%
14:00 +24°C° 0 mm 2 mps 653 mmHg 65%
15:00 +23°C° 0 mm 2 mps 653 mmHg 71%
16:00 +21°C° 0 mm 2 mps 652 mmHg 77%
17:00 +19°C° 0 mm 2 mps 652 mmHg 83%
18:00 +18°C° 0 mm 1 mps 652 mmHg 90%
19:00 +16°C° 0 mm 1 mps 652 mmHg 96%
20:00 +16°C° 0 mm 1 mps 653 mmHg 96%
21:00 +15°C° 0 mm 1 mps 653 mmHg 95%
22:00 +15°C° 0 mm 1 mps 653 mmHg 95%
23:00 +15°C° 0 mm 1 mps 652 mmHg 95%
Mostrar más

Necesitamos Su Consentimiento

Meteoprog y nuestros Proveedores de Servicios pueden almacenar y acceder a sus datos personales como cookies, identificadores de dispositivo u otras tecnologías similares de su dispositivo y procesar dichos datos para personalizar contenido y anuncios, además de ofrecer funciones de redes sociales y analizar el tráfico.

  • Almacenar y/o acceder a información en su dispositivo

    Se puede almacenar o acceder a cookies, identificadores de dispositivo u otra información de su dispositivo para los fines anteriormente indicados.

  • Anuncios y contenido personalizados, medición de anuncios y contenido, percepciones del público, y desarrollo de productos

    Los anuncios y el contenido pueden personalizarse en base a su perfil. Se pueden añadir más datos para personalizar mejor los anuncios y contenidos. Se puede medir el rendimiento de los anuncios y contenidos. Se puede obtener la percepción sobre el público que ha visto los anuncios y contenidos. Dichos datos pueden usarse para desarrollar o mejorar la experiencia del usuario, sistemas y software.

Al hacer clic en ‘Estoy De Acuerdo’ usted permitirá el uso de las cookies, identificadores de dispositivo, balizas web u otras tecnologías similares indicadas. Su configuración puede cambiarse desde el navegador de su dispositivo.

Para ciertos fines, los intereses legítimos pueden ser considerados por encima del consentimiento. Puede leer más sobre ello en nuestra Política de Privacidad y Cookies.